Wind_Speed
14 13 13 12 11 10 10 9 8 8 8 8 8 8 8 8 8 7 7 7 6 6 5 5 5 4 4 4 3 3 3 3 3 3 3 3 3 2 2 2 2 3
14 14 13 12 11 11 10 10 9 9 9 9 8 8 8 8 8 8 8 8 7 7 7 7 6 6 6 5 5 4 4 4 4 4 4 4 4 3 3 3 3 3
15 14 13 12 11 11 11 11 10 10 10 10 10 9 9 9 8 8 8 8 8 8 8 8 8 8 8 7 7 7 6 6 6 6 5 5 5 5 4 5 5 4
15 14 13 12 11 11 12 12 11 11 11 11 11 11 10 10 10 9 9 9 9 9 9 9 9 9 9 9 8 8 8 8 8 7 7 6 6 5 5 5 5 5
14 14 13 13 12 12 13 12 11 11 10 11 11 11 11 10 11 11 11 11 10 10 9 9 9 9 9 9 9 9 9 8 8 8 7 7 7 6 5 5 5 5
14 14 14 14 14 14 14 13 12 11 11 11 11 11 11 11 11 11 11 12 11 11 11 10 10 10 10 10 9 9 9 9 9 8 8 8 7 7 6 6 6 5
16 15 15 15 15 15 15 14 14 13 12 12 12 12 12 11 11 11 12 12 12 12 12 11 11 11 11 11 10 10 10 10 9 9 9 8 8 8 7 6 6 6
17 17 17 17 17 17 16 16 15 15 14 14 13 13 12 12 12 12 12 12 13 13 12 12 11 11 11 11 11 11 11 11 10 10 9 9 9 9 8 8 7 7
19 18 18 18 18 18 18 17 17 16 16 16 15 15 14 13 13 13 13 14 14 14 13 13 13 12 12 12 12 12 12 11 11 11 11 11 11 10 9 9 8 8
20 20 19 20 20 20 20 19 19 18 18 17 17 16 16 15 15 15 15 15 15 15 15 14 14 14 14 14 14 14 14 13 13 12 12 12 12 11 11 10 9 9
22 21 21 21 22 22 21 21 21 20 20 19 18 18 17 17 17 17 17 17 17 16 16 16 16 16 16 15 15 16 15 15 15 14 14 14 14 13 12 11 11 11
24 23 23 23 24 24 23 23 23 22 22 21 20 19 19 18 18 18 18 17 17 17 17 16 16 16 16 16 16 16 16 16 16 15 15 16 16 15 15 14 14 13
26 26 26 26 26 26 25 25 24 24 24 23 21 21 20 20 20 19 19 19 18 18 18 17 17 17 16 16 15 15 15 15 15 16 16 17 17 18 17 17 17 17
30 29 29 29 29 29 28 27 26 26 26 25 24 23 23 22 21 21 21 20 20 20 19 19 19 18 18 18 16 16 15 14 15 16 16 17 18 19 19 19 19 19
32 32 32 32 32 31 30 29 29 28 28 27 27 26 25 25 24 23 23 22 22 22 22 22 21 19 20 21 20 18 17 16 17 17 17 18 19 19 20 20 19 19
33 33 32 32 33 32 32 31 30 29 29 29 29 28 27 26 26 25 25 25 25 25 25 24 23 21 23 24 23 21 20 19 20 21 20 21 21 20 22 22 20 19
32 32 31 31 31 31 31 31 31 30 30 30 30 30 29 28 28 27 28 28 27 27 27 25 24 24 26 26 25 24 23 22 23 23 23 24 23 22 24 24 22 22
30 29 29 28 27 28 30 31 31 30 31 31 31 31 31 30 30 29 30 30 29 29 29 26 25 26 26 26 25 25 25 24 24 24 24 24 24 24 25 25 24 23
29 28 27 26 27 28 30 31 30 29 29 30 32 32 33 33 32 31 31 31 30 31 30 27 26 27 26 26 26 26 25 25 25 24 25 25 25 25 25 25 24 24
32 31 29 28 29 30 30 31 31 29 29 30 32 33 32 32 32 32 32 32 31 31 30 28 28 28 26 26 26 26 25 25 24 24 24 24 24 24 25 25 24 24
34 34 32 31 31 31 32 33 33 33 31 31 31 32 32 30 30 32 33 33 32 32 30 28 27 27 27 26 26 25 25 24 23 23 23 23 23 23 23 24 25 24
37 38 37 34 34 34 35 35 35 36 36 34 32 32 32 31 29 30 32 33 33 32 30 28 28 27 26 25 25 24 24 24 24 24 24 24 23 21 21 23 26 26
38 41 42 40 39 38 38 37 37 39 41 40 37 36 35 33 32 31 32 33 33 32 30 29 28 27 26 25 25 25 25 26 26 26 26 26 24 23 23 25 27 27
38 40 43 45 45 42 41 42 42 44 45 44 42 40 37 36 35 35 35 35 34 33 31 29 29 28 27 27 26 27 27 28 28 29 29 29 28 28 28 29 30 29
37 38 40 44 46 46 46 47 46 46 46 45 44 42 38 37 37 38 39 38 35 33 31 30 29 30 30 29 29 29 30 31 32 32 32 32 32 32 33 33 34 33
31 36 38 39 41 44 48 49 49 50 49 47 44 41 38 38 40 40 40 39 36 34 32 32 32 32 32 32 32 32 33 33 33 34 33 33 33 33 33 33 34 34
Wind_Direction
181 181 180 181 181 181 180 180 182 184 186 191 195 195 190 190 193 194 195 199 201 202 204 202 201 201 200 202 203 204 207 216 222 224 224 230 240 248 259 268 278 290
188 186 185 186 186 186 186 185 188 189 190 192 195 198 198 196 198 201 202 205 208 212 216 219 220 220 222 224 226 229 229 230 233 236 236 241 247 254 263 269 273 280
195 192 190 190 190 191 193 193 195 197 197 197 197 199 200 199 201 205 209 210 211 214 218 222 224 226 229 232 235 238 242 243 246 249 251 253 254 254 259 266 272 276
203 201 198 196 197 198 200 201 201 202 203 204 204 203 201 201 200 202 208 212 214 217 220 224 226 227 229 233 237 241 244 247 251 256 261 264 264 263 263 269 276 281
211 210 207 205 204 206 209 209 209 208 207 210 212 211 208 208 206 203 206 211 215 219 221 225 228 229 229 231 235 241 244 246 249 253 260 266 270 275 277 283 289 295
219 218 216 214 212 213 214 215 217 218 216 217 219 219 219 217 215 211 212 214 217 220 222 224 228 231 232 233 235 240 244 246 249 254 260 265 270 277 282 287 293 298
223 223 222 221 220 220 219 219 221 223 224 226 226 227 228 226 222 220 221 221 222 223 225 227 230 234 235 237 238 240 243 246 250 254 260 264 268 274 279 284 289 294
225 226 226 226 226 226 225 224 225 226 228 231 232 233 235 234 231 229 228 229 230 231 231 233 235 237 239 241 242 242 244 246 249 253 258 264 268 272 277 281 284 286
230 231 230 231 231 231 231 229 229 230 232 233 236 237 239 240 241 240 238 238 238 239 239 240 240 240 241 244 246 247 248 250 253 256 259 263 266 270 273 276 278 278
234 234 235 236 236 236 236 235 234 234 235 237 239 241 243 245 246 247 246 245 244 244 245 245 245 245 244 245 248 250 251 252 254 257 260 261 262 265 266 268 270 272
235 236 237 238 239 240 240 240 240 240 239 240 241 243 246 248 249 250 250 249 247 247 247 248 249 251 249 248 249 252 254 257 257 258 259 261 261 261 261 261 261 263
235 235 236 237 239 241 242 242 243 245 244 243 243 245 247 249 250 250 250 249 249 249 249 250 251 252 253 251 252 255 258 260 261 261 260 260 260 260 259 258 256 256
236 236 236 236 237 239 241 242 244 246 247 246 245 246 247 248 250 250 250 250 250 250 251 251 252 253 253 253 254 256 259 260 262 263 262 261 259 258 256 255 254 252
236 237 237 238 238 238 239 240 242 244 246 247 247 246 246 247 248 249 252 253 254 255 255 254 254 256 259 259 257 257 261 265 268 270 271 270 269 266 262 259 258 257
239 239 239 240 241 241 240 240 240 242 243 245 246 246 246 247 249 250 252 255 257 258 259 258 257 258 261 260 257 255 256 258 260 263 266 268 270 272 271 267 265 264
242 244 245 245 246 248 247 246 244 243 244 245 246 247 248 249 252 255 257 258 258 259 259 260 260 259 258 257 258 257 254 251 250 252 253 256 259 264 268 267 264 263
245 247 249 250 251 253 255 255 253 250 248 248 248 249 250 251 252 255 258 258 258 258 258 258 260 259 258 259 261 262 260 257 255 255 254 255 255 256 259 262 262 262
245 246 248 249 249 250 252 255 258 258 255 252 252 252 252 252 252 253 255 256 257 257 257 256 257 258 259 261 262 262 263 262 261 259 258 257 256 256 257 260 262 262
246 245 246 247 247 247 247 248 251 255 257 254 252 251 251 252 252 252 253 255 256 257 258 258 257 258 259 261 261 261 261 261 261 261 259 258 257 257 259 261 262 261
246 246 246 246 247 249 251 249 248 249 251 250 248 247 247 250 253 254 254 254 255 256 257 258 258 258 258 259 259 259 259 259 261 261 261 259 258 257 258 260 260 261
248 249 249 248 248 251 253 254 252 251 250 250 250 248 246 246 251 255 256 255 254 254 253 254 255 256 256 257 258 260 260 260 261 261 262 262 260 259 260 262 262 261
249 250 250 251 250 250 253 254 254 254 254 252 252 252 250 247 247 250 254 254 253 251 249 248 251 252 251 254 257 259 260 260 260 260 260 260 260 260 261 264 264 261
249 248 249 250 250 251 253 253 251 254 256 253 251 252 252 250 248 249 253 253 251 249 248 247 249 250 250 251 254 256 257 258 257 258 258 259 260 260 259 260 260 259
248 248 247 247 247 247 248 249 248 250 253 252 250 251 251 250 251 253 254 252 249 248 247 247 249 251 252 252 254 256 258 259 258 258 259 260 261 262 262 262 261 261
249 247 246 246 246 244 244 246 247 248 250 250 250 251 251 248 248 251 252 250 248 247 247 247 249 253 254 255 257 259 262 263 263 263 263 264 266 267 267 265 264 264
251 249 245 243 243 243 243 245 246 246 247 248 248 251 254 250 246 247 248 248 248 248 248 248 250 253 256 258 260 263 264 265 265 265 265 266 267 269 269 268 266 265
Height
5937 5938 5939 5940 5941 5941 5942 5943 5943 5944 5945 5945 5946 5947 5947 5948 5948 5949 5949 5950 5950 5950 5950 5951 5951 5951 5952 5952 5952 5952 5953 5953 5954 5954 5954 5954 5954 5954 5954 5954 5954 5954
5937 5938 5939 5939 5940 5941 5942 5942 5943 5944 5944 5945 5946 5947 5947 5948 5948 5948 5949 5949 5950 5950 5950 5950 5951 5951 5951 5952 5952 5952 5952 5953 5953 5953 5953 5954 5954 5953 5953 5953 5953 5953
5937 5938 5938 5939 5940 5941 5942 5942 5943 5943 5944 5945 5945 5946 5946 5947 5947 5948 5948 5949 5949 5949 5950 5950 5950 5951 5951 5951 5952 5952 5952 5952 5952 5953 5953 5953 5953 5953 5953 5953 5953 5953
5937 5938 5938 5939 5940 5941 5942 5942 5943 5943 5944 5944 5945 5945 5946 5946 5947 5947 5948 5948 5949 5949 5949 5950 5950 5950 5951 5951 5951 5951 5952 5952 5952 5952 5952 5953 5953 5953 5953 5953 5952 5952
5936 5937 5938 5939 5939 5940 5941 5942 5943 5943 5944 5944 5945 5945 5945 5946 5946 5947 5947 5948 5948 5948 5949 5949 5950 5950 5950 5951 5951 5951 5951 5951 5951 5951 5952 5952 5952 5952 5952 5952 5952 5952
5936 5937 5937 5938 5939 5939 5940 5941 5942 5943 5943 5944 5944 5945 5945 5945 5946 5946 5947 5947 5947 5948 5948 5949 5949 5949 5950 5950 5950 5950 5950 5950 5950 5951 5951 5951 5951 5951 5951 5951 5951 5951
5935 5936 5937 5937 5938 5938 5939 5940 5941 5942 5943 5943 5944 5944 5945 5945 5945 5945 5946 5946 5947 5947 5947 5948 5948 5948 5949 5949 5949 5949 5949 5949 5950 5950 5950 5950 5950 5950 5950 5950 5950 5950
5934 5935 5935 5936 5936 5937 5938 5939 5940 5941 5941 5942 5943 5943 5944 5944 5944 5945 5945 5945 5946 5946 5946 5947 5947 5947 5948 5948 5948 5948 5948 5949 5949 5948 5948 5949 5949 5949 5949 5949 5949 5949
5933 5933 5934 5934 5935 5936 5937 5937 5938 5939 5939 5940 5941 5942 5942 5943 5943 5943 5944 5944 5945 5945 5945 5946 5946 5946 5946 5947 5947 5947 5947 5947 5947 5947 5947 5947 5948 5948 5948 5948 5948 5948
5931 5932 5933 5933 5933 5934 5935 5936 5936 5937 5937 5938 5939 5940 5940 5941 5941 5942 5942 5943 5943 5944 5944 5944 5944 5944 5945 5945 5945 5946 5946 5946 5946 5946 5946 5946 5946 5946 5946 5946 5946 5946
5929 5930 5931 5931 5932 5932 5933 5934 5935 5935 5935 5936 5937 5937 5938 5939 5939 5940 5940 5941 5941 5942 5942 5943 5943 5943 5943 5944 5944 5944 5944 5944 5944 5944 5944 5944 5944 5945 5944 5944 5945 5945
5926 5927 5928 5929 5929 5930 5931 5932 5933 5933 5934 5934 5935 5935 5936 5937 5937 5938 5938 5939 5940 5940 5941 5941 5941 5942 5942 5942 5943 5943 5943 5943 5943 5943 5943 5943 5943 5943 5943 5942 5942 5942
5923 5924 5924 5925 5926 5927 5928 5930 5931 5931 5932 5932 5933 5933 5934 5934 5935 5936 5936 5937 5938 5938 5939 5939 5940 5940 5940 5941 5941 5941 5941 5942 5942 5942 5941 5941 5941 5941 5940 5940 5940 5940
5919 5920 5921 5921 5922 5923 5924 5926 5927 5929 5929 5930 5930 5931 5931 5932 5933 5934 5934 5935 5935 5936 5936 5937 5937 5938 5938 5939 5939 5940 5940 5941 5941 5941 5941 5941 5940 5940 5939 5938 5938 5938
5916 5917 5918 5918 5919 5920 5921 5923 5924 5925 5926 5927 5928 5928 5929 5930 5931 5932 5932 5933 5933 5934 5934 5934 5935 5936 5936 5936 5936 5938 5938 5939 5939 5938 5938 5938 5938 5938 5939 5938 5937 5936
5913 5915 5916 5917 5918 5919 5920 5921 5921 5922 5923 5924 5925 5926 5927 5928 5928 5929 5930 5930 5930 5931 5931 5931 5932 5933 5933 5932 5933 5933 5934 5935 5935 5935 5935 5935 5934 5935 5936 5936 5935 5934
5911 5913 5914 5915 5916 5918 5919 5920 5920 5921 5921 5922 5923 5923 5924 5925 5926 5926 5926 5926 5927 5927 5927 5928 5930 5930 5929 5929 5930 5930 5930 5932 5932 5932 5932 5932 5932 5933 5933 5932 5932 5931
5908 5910 5911 5912 5914 5915 5915 5916 5918 5919 5919 5920 5920 5921 5921 5922 5922 5923 5923 5922 5923 5923 5924 5925 5927 5926 5926 5927 5927 5927 5927 5928 5928 5928 5929 5929 5929 5929 5929 5929 5928 5928
5905 5906 5908 5909 5910 5911 5911 5912 5913 5915 5916 5916 5916 5916 5916 5917 5918 5919 5920 5920 5921 5921 5921 5922 5923 5922 5923 5924 5924 5924 5924 5924 5924 5925 5925 5925 5925 5925 5925 5925 5925 5925
5901 5902 5904 5906 5907 5907 5908 5909 5909 5910 5910 5911 5911 5911 5911 5912 5913 5915 5916 5917 5917 5917 5918 5919 5920 5919 5919 5920 5920 5920 5921 5921 5921 5921 5921 5922 5922 5921 5921 5921 5921 5921
5898 5899 5901 5902 5903 5904 5905 5906 5906 5906 5907 5907 5908 5908 5907 5908 5909 5910 5911 5912 5913 5914 5915 5916 5916 5916 5916 5916 5917 5917 5918 5918 5919 5919 5918 5918 5918 5919 5919 5919 5919 5919
5895 5895 5897 5899 5901 5902 5902 5902 5902 5903 5903 5904 5905 5904 5904 5905 5905 5905 5906 5907 5908 5909 5911 5912 5912 5912 5913 5913 5914 5914 5915 5915 5915 5915 5915 5915 5915 5915 5916 5916 5917 5916
5889 5891 5892 5894 5896 5897 5898 5898 5898 5898 5898 5900 5901 5901 5901 5902 5902 5902 5902 5903 5904 5905 5907 5908 5909 5909 5910 5910 5911 5911 5911 5911 5912 5912 5911 5911 5911 5912 5911 5911 5912 5912
5884 5886 5887 5889 5890 5892 5894 5894 5894 5893 5892 5894 5897 5898 5898 5898 5899 5900 5900 5900 5901 5902 5903 5905 5905 5906 5906 5906 5907 5907 5907 5907 5907 5907 5908 5908 5908 5908 5908 5907 5907 5907
5880 5881 5882 5883 5884 5887 5888 5888 5889 5888 5888 5889 5891 5893 5894 5895 5895 5896 5896 5896 5897 5898 5900 5901 5901 5902 5902 5902 5902 5903 5903 5903 5903 5903 5903 5904 5904 5904 5904 5903 5903 5903
5875 5875 5876 5877 5879 5880 5880 5881 5883 5883 5882 5883 5886 5888 5889 5889 5889 5890 5891 5892 5894 5895 5896 5897 5897 5897 5898 5898 5898 5898 5898 5898 5898 5899 5899 5899 5899 5899 5898 5898 5898 5898